This is the latest recevied weather packets stored in our database for station/object K5RWS. If no packets are shown the sender has not sent any weather packets the latest 10 day(s).
| Time | Temp. | Humidity | Pressure | Rain* | Wind** | Luminosity | Snow |
|---|---|---|---|---|---|---|---|
| 1777903814 | 14.44° C | 60% | 1017.9 hPa | 0 mm | - | 108 W/m² | - |
| 1777903511 | 14.44° C | 61% | 1018 hPa | 0 mm | - | 105 W/m² | - |
| 1777903207 | 14.44° C | 61% | 1018 hPa | 0 mm | - | 92 W/m² | - |
| 1777902903 | 13.89° C | 62% | 1018.1 hPa | 0 mm | - | 98 W/m² | - |
| 1777902600 | 13.89° C | 61% | 1017.9 hPa | 0 mm | - | 90 W/m² | - |
| 1777902297 | 13.89° C | 62% | 1018 hPa | 0 mm | - | 88 W/m² | - |
| 1777901995 | 13.89° C | 63% | 1017.9 hPa | 0 mm | - | 76 W/m² | - |
| 1777901693 | 13.89° C | 63% | 1017.9 hPa | 0 mm | - | 82 W/m² | - |
| 1777901390 | 13.89° C | 64% | 1017.9 hPa | 0 mm | - | 68 W/m² | - |
| 1777901087 | 13.33° C | 64% | 1017.6 hPa | 0 mm | - | 62 W/m² | - |
| 1777900784 | 13.33° C | 64% | 1017.7 hPa | 0 mm | - | 48 W/m² | - |
| 1777900482 | 13.33° C | 64% | 1017.6 hPa | 0 mm | - | 40 W/m² | - |
| 1777900179 | 13.33° C | 64% | 1017.7 hPa | 0 mm | - | 40 W/m² | - |
| 1777899875 | 13.33° C | 64% | 1017.7 hPa | 0 mm | - | 36 W/m² | - |
| 1777899572 | 13.33° C | 64% | 1017.6 hPa | 0 mm | - | 28 W/m² | - |
| 1777899269 | 12.78° C | 66% | 1017.6 hPa | 0 mm | - | 21 W/m² | - |
| 1777898967 | 12.78° C | 67% | 1017.2 hPa | 0 mm | - | 24 W/m² | - |
| 1777898664 | 12.78° C | 66% | 1017 hPa | 0 mm | - | 12 W/m² | - |
| 1777898361 | 12.22° C | 68% | 1017.2 hPa | 0 mm | - | 12 W/m² | - |
| 1777898059 | 11.67° C | 69% | 1016.6 hPa | 0 mm | - | 9 W/m² | - |
| 1777897754 | 12.22° C | 68% | 1017.2 hPa | 0 mm | - | 6 W/m² | - |
| 1777897451 | 12.22° C | 68% | 1016.9 hPa | 0 mm | - | 4 W/m² | - |
| 1777897147 | 12.22° C | 68% | 1016.8 hPa | 0 mm | - | 2 W/m² | - |
| 1777896843 | 12.22° C | 68% | 1016.9 hPa | 0 mm | - | 1 W/m² | - |
| 1777896541 | 12.22° C | 69% | 1016.8 hPa | 0 mm | - | 1 W/m² | - |
* Rain latest hour (hover to see other rain measurements)
** Current wind speed in m/s (hover to see current wind gust speed)